EMISAT (44078 NORAD) Tracking and Keplerian Element Data

This shows tracking and keplerian element data for the satellite.

Feedback or suggestion? Click here.




ElementValue
Catalog44078
NameEMISAT
Epoch Orbit415
Epoch Day119.89961196
Epoch Year2019
RAAN180.0673
Inclination98.3807
Eccentricity0.0019266
Argument of Perigee165.0583
Mean Anonmoly195.1181
Mean Motion14.43697409
Decay Rate1.2E-07
L11 44078U 19018A 19119.89961196 .00000012 00000-0 16376-4 0 9992
L22 44078 98.3807 180.0673 0019266 165.0583 195.1181 14.43697409 4150

Live tracking and technical data element details for EMISAT (NORAD 44078). EMISAT can be tracked NOW for your location showing map with azimuth and elevation plus other details from your city location.

Track the satellite on the map from your city or location and see movement details for azimuth, elevation, latitude, longitude, range, height, and movement on the map or in text.







IsCatalogInMostPopularTable: catalog: 44078, numindb: 20
Update: records affected: 1



GetName: 44078 EMISAT

Hit Count: updated at: Mon, 22 Jul 2019 03:16:58 GMT